Hays, KS

7:34 AM CDT on April 25, 2018 (GMT -0500)
Hays Regional

Weather History for KHYS - February, 2013

Change the Weather History Date:

Sunday, February 24, 2013

  Actual Average Record
Temperature  
Mean Temperature 20 °F -  
Max Temperature 33 °F 43 °F 69 °F (2009)
Min Temperature 8 °F 21 °F 0 °F (2003)
Degree Days  
Heating Degree Days 44    
Moisture  
Dew Point 21 °F    
Average Humidity 89    
Maximum Humidity 100    
Minimum Humidity 75    
Precipitation  
Precipitation 0.01 in - - ()
Sea Level Pressure  
Sea Level Pressure 29.84 in    
Wind  
Wind Speed 8 mph (NE)    
Max Wind Speed 20 mph    
Max Gust Speed 24 mph    
Visibility 6 miles    
Events      
Averages and records for this station are not official NWS values.
T = Trace of Precipitation, MM = Missing Value Source: NWS Daily Summary

Daily Weather History Graph

Daily Weather History Graph

Search for Another Location

Airport or City:

Astronomy

Feb. 24, 2013 Rise Set
Actual Time 7:16 AM CST 6:24 PM CST
Civil Twilight 6:49 AM CST 6:51 PM CST
Nautical Twilight 6:18 AM CST 7:22 PM CST
Astronomical Twilight 5:47 AM CST 7:53 PM CST
Moon 5:37 PM CST (2/24) 6:13 AM CST (2/24)
Length of Visible Light 12h 02m
Length of Day
11h 08m
Waxing Gibbous, 99% of the Moon is Illuminated
Feb 24
Waxing Gibbous
Feb 25
Full
Mar 4
Last Quarter
Mar 11
New
Mar 19
First Quarter

Hourly Weather History & Observations

Time (CST) Temp. Windchill Dew Point Humidity Pressure Visibility Wind Dir Wind Speed Gust Speed Precip Events Conditions
12:15 AM 19.4 °F 14.3 °F 17.6 °F 93% 29.80 in 2.5 mi SE 3.5 mph - N/A   Clear
12:35 AM 17.6 °F - 17.6 °F 100% 29.80 in 0.8 mi Calm Calm - N/A   Mostly Cloudy
12:55 AM 15.8 °F 8.6 °F 14.0 °F 93% 29.80 in 1.5 mi East 4.6 mph - N/A   Scattered Clouds
1:15 AM 14.0 °F 6.5 °F 10.4 °F 86% 29.81 in 0.2 mi ESE 4.6 mph - N/A   Mostly Cloudy
1:35 AM 17.6 °F 9.3 °F 15.8 °F 93% 29.81 in 1.8 mi SE 5.8 mph - N/A   Scattered Clouds
1:55 AM 17.6 °F 9.3 °F 14.0 °F 86% 29.81 in 1.2 mi ESE 5.8 mph - N/A   Clear
2:15 AM 15.8 °F 8.6 °F 10.4 °F 79% 29.81 in 0.8 mi East 4.6 mph - N/A   Unknown
2:35 AM 14.0 °F 6.5 °F 12.2 °F 93% 29.81 in 1.2 mi East 4.6 mph - N/A   Clear
2:55 AM 15.8 °F 8.6 °F 12.2 °F 86% 29.81 in 1.0 mi East 4.6 mph - N/A   Clear
3:15 AM 10.4 °F - 6.8 °F 85% 29.80 in 0.5 mi Calm Calm - N/A   Mostly Cloudy
3:35 AM 10.4 °F 4.0 °F 10.4 °F 100% 29.80 in 0.2 mi East 3.5 mph - N/A   Overcast
3:55 AM 10.4 °F 4.0 °F 10.4 °F 100% 29.80 in 0.2 mi East 3.5 mph - N/A   Overcast
4:15 AM 8.6 °F 0.1 °F 3.2 °F 79% 29.80 in 0.2 mi ENE 4.6 mph - N/A   Overcast
4:35 AM 10.4 °F 0.8 °F 8.6 °F 92% 29.80 in 0.2 mi ENE 5.8 mph - N/A   Overcast
4:55 AM 10.4 °F 0.8 °F 8.6 °F 92% 29.80 in 0.2 mi ENE 5.8 mph - N/A   Overcast
5:15 AM 10.4 °F -0.4 °F 8.6 °F 92% 29.80 in 0.2 mi ENE 6.9 mph - N/A   Overcast
5:35 AM 12.2 °F 0.7 °F 10.4 °F 92% 29.79 in 0.2 mi ENE 8.1 mph - N/A   Overcast
5:55 AM 12.2 °F 0.7 °F 10.4 °F 92% 29.79 in 0.5 mi ENE 8.1 mph - N/A   Overcast
6:15 AM 12.2 °F 0.7 °F 12.2 °F 100% 29.79 in 0.8 mi ENE 8.1 mph - N/A   Overcast
6:35 AM 12.2 °F 1.7 °F 10.4 °F 92% 29.80 in 4.0 mi ENE 6.9 mph - N/A   Partly Cloudy
6:55 AM 14.0 °F 3.9 °F 12.2 °F 93% 29.80 in 4.0 mi ENE 6.9 mph - N/A   Clear
7:15 AM 12.2 °F 1.7 °F 12.2 °F 100% 29.80 in 4.0 mi ENE 6.9 mph - N/A   Clear
7:35 AM 12.2 °F 0.7 °F 10.4 °F 92% 29.80 in 4.0 mi ENE 8.1 mph - N/A   Clear
7:55 AM 12.2 °F 1.7 °F 10.4 °F 92% 29.81 in 4.0 mi ENE 6.9 mph - N/A   Clear
8:15 AM 12.2 °F 1.7 °F 10.4 °F 92% 29.82 in 5.0 mi ENE 6.9 mph - N/A   Clear
8:35 AM 15.8 °F 4.2 °F 12.2 °F 86% 29.82 in 5.0 mi ENE 9.2 mph - N/A   Clear
8:55 AM 15.8 °F 4.2 °F 14.0 °F 93% 29.81 in 5.0 mi ENE 9.2 mph - N/A   Clear
9:15 AM 17.6 °F 5.7 °F 17.6 °F 100% 29.81 in 7.0 mi ENE 10.4 mph - N/A   Clear
9:35 AM 19.4 °F 8.6 °F 19.4 °F 100% 29.82 in 8.0 mi ENE 9.2 mph - N/A   Clear
9:55 AM 21.2 °F 11.7 °F 19.4 °F 93% 29.83 in 8.0 mi NE 8.1 mph - N/A   Clear
10:15 AM 21.2 °F 10.9 °F 19.4 °F 93% 29.83 in 7.0 mi ENE 9.2 mph - N/A   Partly Cloudy
10:35 AM 23.0 °F 12.4 °F 21.2 °F 93% 29.83 in 6.0 mi ENE 10.4 mph - N/A   Mostly Cloudy
10:55 AM 24.8 °F 13.4 °F 24.8 °F 100% 29.82 in 7.0 mi ENE 12.7 mph - N/A   Overcast
11:15 AM 24.8 °F 12.9 °F 21.2 °F 86% 29.82 in 6.0 mi ENE 13.8 mph - N/A   Overcast
11:35 AM 24.8 °F 13.4 °F 23.0 °F 93% 29.82 in 7.0 mi ENE 12.7 mph - N/A   Overcast
11:55 AM 24.8 °F 13.4 °F 24.8 °F 100% 29.81 in 7.0 mi ENE 12.7 mph - N/A   Overcast
12:15 PM 26.6 °F 16.2 °F 24.8 °F 93% 29.82 in 6.0 mi NE 11.5 mph - N/A   Overcast
12:35 PM 26.6 °F 17.5 °F 24.8 °F 93% 29.81 in 8.0 mi ENE 9.2 mph - N/A   Overcast
12:55 PM 28.4 °F 19.1 °F 26.6 °F 93% 29.82 in 9.0 mi NE 10.4 mph - N/A   Overcast
1:15 PM 30.2 °F 20.2 °F 26.6 °F 86% 29.80 in 8.0 mi NE 12.7 mph - N/A   Overcast
1:35 PM 30.2 °F 20.2 °F 26.6 °F 86% 29.80 in 9.0 mi NE 12.7 mph - N/A   Overcast
1:55 PM 30.2 °F 19.8 °F 26.6 °F 86% 29.80 in 9.0 mi ENE 13.8 mph - N/A   Overcast
2:15 PM 32.0 °F 22.1 °F 26.6 °F 80% 29.79 in 9.0 mi NE 13.8 mph - N/A   Overcast
2:35 PM 33.8 °F 24.3 °F 26.6 °F 75% 29.78 in 8.0 mi NE 13.8 mph - N/A   Mostly Cloudy
2:55 PM 32.0 °F 23.6 °F 26.6 °F 80% 29.79 in 8.0 mi NE 10.4 mph - N/A   Overcast
3:15 PM 32.0 °F 23.0 °F 26.6 °F 80% 29.80 in 8.0 mi NE 11.5 mph - N/A   Overcast
3:35 PM 32.0 °F 22.1 °F 26.6 °F 80% 29.79 in 8.0 mi NE 13.8 mph - 0.01 in   Overcast
3:55 PM 32.0 °F 22.1 °F 26.6 °F 80% 29.80 in 9.0 mi NE 13.8 mph - 0.01 in   Overcast
4:15 PM 32.0 °F 22.5 °F 26.6 °F 80% 29.80 in 10.0 mi NE 12.7 mph - N/A   Overcast
4:35 PM 32.0 °F 23.6 °F 26.6 °F 80% 29.82 in 9.0 mi NE 10.4 mph - N/A   Overcast
4:55 PM 32.0 °F 23.0 °F 26.6 °F 80% 29.83 in 9.0 mi NE 11.5 mph - N/A   Overcast
5:15 PM 33.8 °F 25.3 °F 28.4 °F 81% 29.83 in 10.0 mi NE 11.5 mph - N/A   Overcast
5:35 PM 33.8 °F 25.3 °F 28.4 °F 81% 29.84 in 9.0 mi NE 11.5 mph - N/A   Overcast
5:55 PM 33.8 °F 25.3 °F 28.4 °F 81% 29.85 in 9.0 mi NNE 11.5 mph - N/A   Overcast
6:15 PM 33.8 °F 25.3 °F 28.4 °F 81% 29.86 in 10.0 mi NE 11.5 mph - N/A   Overcast
6:35 PM 33.8 °F 25.3 °F 28.4 °F 81% 29.88 in 10.0 mi NNE 11.5 mph - N/A   Overcast
6:55 PM 33.8 °F 24.8 °F 28.4 °F 81% 29.89 in 10.0 mi NNE 12.7 mph - N/A   Overcast
7:15 PM 33.8 °F 25.8 °F 28.4 °F 81% 29.91 in 10.0 mi NNE 10.4 mph - N/A   Overcast
7:35 PM 33.8 °F 24.8 °F 28.4 °F 81% 29.92 in 10.0 mi North 12.7 mph - N/A   Overcast
7:55 PM 33.8 °F 24.8 °F 28.4 °F 81% 29.93 in 10.0 mi North 12.7 mph - N/A   Overcast
8:15 PM 33.8 °F 23.5 °F 28.4 °F 81% 29.93 in 10.0 mi North 16.1 mph - N/A   Overcast
8:35 PM 32.0 °F 21.2 °F 28.4 °F 87% 29.94 in 10.0 mi North 16.1 mph - N/A   Overcast
8:55 PM 32.0 °F 20.1 °F 28.4 °F 87% 29.93 in 8.0 mi NNE 19.6 mph - N/A   Overcast
9:15 PM 32.0 °F 20.5 °F 28.4 °F 87% 29.93 in 8.0 mi NNE 18.4 mph - N/A   Overcast
9:35 PM 32.0 °F 21.2 °F 28.4 °F 87% 29.95 in 7.0 mi NNE 16.1 mph - N/A   Overcast
9:55 PM 30.2 °F 18.5 °F 28.4 °F 93% 29.95 in 7.0 mi NNE 17.3 mph - N/A   Overcast
10:15 PM 30.2 °F 18.9 °F 28.4 °F 93% 29.97 in 7.0 mi North 16.1 mph - N/A   Overcast
10:35 PM 30.2 °F 18.1 °F 26.6 °F 86% 29.96 in 7.0 mi North 18.4 mph - N/A   Overcast
10:55 PM 30.2 °F 18.9 °F 26.6 °F 86% 29.97 in 6.0 mi North 16.1 mph - N/A   Overcast
11:15 PM 30.2 °F 18.1 °F 28.4 °F 93% 29.97 in 4.0 mi North 18.4 mph - N/A   Overcast
11:35 PM 30.2 °F 18.5 °F 28.4 °F 93% 29.97 in 3.0 mi North 17.3 mph - N/A   Overcast
11:55 PM 30.2 °F 17.8 °F 28.4 °F 93% 29.96 in 2.5 mi NNE 19.6 mph 24.2 mph N/A   Overcast